Date String (YYYY-MM-DD hh:mm:ss) UTC,Instrument flags,Ambient pressure (hPa),Sample flow (lpm),Bypass flow (lpm),Sample temperature (°C),Ambient temperature (°C),ASC tube jacket temperature (°C),LED temperature (°C),Box temperature (°C),Sample RH (%),Span deviation,Mass concentration (μg/m³),Mass concentration (μg/m³),Mass concentration (μg/m³)
DateTimeUTC,F1_M11,P_M11,Q1_M11,Q2_M11,T1_M11,T2_M11,T3_M11,T4_M11,T5_M11,U1_M11,ZSPAN_M11,X2_M11,X0_M11,X1_M11
2022-09-25 08:00:00,,0835.9,5.00,0.00,30.6,29.0,00.0,39.4,32.4,13.7,0000.0,0006.13,0009.90,0005.62
2022-09-25 08:01:00,,0835.9,4.99,0.00,30.6,29.0,00.0,39.4,32.4,13.6,0000.0,0006.11,0009.83,0005.61
2022-09-25 08:02:00,,0835.9,5.01,0.00,30.6,29.0,00.0,39.4,32.4,13.6,0000.0,0006.10,0009.80,0005.61
2022-09-25 08:03:00,,0836.0,4.99,0.00,30.6,29.0,00.0,39.4,32.4,13.6,0000.0,0006.13,0009.96,0005.62
2022-09-25 08:04:00,,0836.0,5.01,0.00,30.6,28.9,00.0,39.5,32.4,13.6,0000.0,0006.14,0010.28,0005.62
2022-09-25 08:05:00,,0835.9,4.99,0.00,30.6,29.0,00.0,39.4,32.4,13.6,0000.0,0006.12,0010.52,0005.62
2022-09-25 08:06:00,,0836.0,5.00,0.00,30.6,29.0,00.0,39.4,32.4,13.6,0000.0,0006.12,0010.65,0005.61
2022-09-25 08:07:00,,0836.0,5.02,0.00,30.6,28.9,00.0,39.4,32.4,13.6,0000.0,0006.15,0010.85,0005.61
2022-09-25 08:08:00,,0836.0,4.99,0.00,30.6,28.9,00.0,39.4,32.4,13.6,0000.0,0006.17,0010.91,0005.62
2022-09-25 08:09:00,,0836.0,5.00,0.00,30.6,29.0,00.0,39.4,32.4,13.6,0000.0,0006.17,0010.92,0005.61
2022-09-25 08:10:00,,0836.0,5.00,0.00,30.6,29.0,00.0,39.4,32.4,13.6,0000.0,0006.14,0010.88,0005.61
2022-09-25 08:11:00,,0836.1,4.99,0.00,30.6,28.9,00.0,39.4,32.4,13.7,0000.0,0006.13,0010.80,0005.61
2022-09-25 08:12:00,,0836.0,5.01,0.00,30.6,28.9,00.0,39.4,32.4,13.7,0000.0,0006.14,0010.83,0005.61
2022-09-25 08:13:00,,0836.0,4.99,0.00,30.6,28.9,00.0,39.4,32.4,13.6,0000.0,0006.14,0011.17,0005.60
2022-09-25 08:14:00,,0836.0,5.01,0.00,30.6,29.0,00.0,39.4,32.4,13.7,0000.0,0006.10,0010.43,0005.59
2022-09-25 08:15:00,,0836.1,5.00,0.00,30.6,29.0,00.0,39.4,32.4,13.6,0001.1,0006.10,0010.04,0005.60
2022-09-25 08:16:00,,0836.1,5.00,0.00,30.6,29.0,00.0,39.4,32.4,13.5,0002.2,0006.13,0009.93,0005.60
2022-09-25 08:17:00,,0836.0,5.01,0.00,30.6,28.9,00.0,39.4,32.4,13.6,0002.6,0006.15,0010.01,0005.61
2022-09-25 08:18:00,,0836.0,4.99,0.00,30.6,28.9,00.0,39.4,32.4,13.6,0002.6,0006.16,0010.06,0005.62
2022-09-25 08:19:00,,0836.0,4.99,0.00,30.6,28.9,00.0,39.4,32.4,13.6,0002.8,0006.15,0010.63,0005.62
2022-09-25 08:20:00,,0836.0,5.01,0.00,30.6,28.9,00.0,39.4,32.4,13.7,0002.8,0006.15,0011.46,0005.61
2022-09-25 08:21:00,,0836.0,4.99,0.00,30.6,28.9,00.0,39.4,32.4,13.6,0002.8,0006.16,0011.88,0005.61
2022-09-25 08:22:00,,0835.9,5.01,0.00,30.6,28.9,00.0,39.4,32.3,13.5,0002.5,0006.17,0011.99,0005.62
2022-09-25 08:23:00,,0836.0,4.99,0.00,30.6,28.9,00.0,39.4,32.3,13.7,0002.5,0006.16,0012.00,0005.61
2022-09-25 08:24:00,,0836.0,5.01,0.00,30.6,28.9,00.0,39.4,32.4,13.7,0002.5,0006.18,0011.70,0005.62
2022-09-25 08:25:00,,0836.0,4.99,0.00,30.6,28.9,00.0,39.4,32.3,13.7,0002.5,0006.18,0011.68,0005.61
2022-09-25 08:26:00,,0835.9,4.99,0.00,30.6,28.9,00.0,39.4,32.3,13.6,0002.5,0006.19,0011.73,0005.61
2022-09-25 08:27:00,,0835.9,5.01,0.00,30.5,28.9,00.0,39.4,32.3,13.6,0002.5,0006.18,0011.64,0005.61
2022-09-25 08:28:00,,0835.9,4.99,0.00,30.5,28.9,00.0,39.4,32.4,13.7,0001.4,0006.13,0011.36,0005.60
2022-09-25 08:29:00,,0835.9,4.99,0.00,30.6,28.9,00.0,39.4,32.4,13.7,0000.4,0006.10,0011.25,0005.60
2022-09-25 08:30:00,,0835.9,5.02,0.00,30.5,28.9,00.0,39.4,32.3,13.7,0000.0,0006.12,0010.69,0005.59
2022-09-25 08:31:00,,0835.9,4.99,0.00,30.5,28.9,00.0,39.4,32.3,13.7,0000.1,0006.11,0009.70,0005.60
2022-09-25 08:32:00,,0835.9,5.00,0.00,30.5,28.9,00.0,39.4,32.3,13.7,0001.6,0006.08,0009.29,0005.60
2022-09-25 08:33:00,,0835.9,5.01,0.00,30.5,28.9,00.0,39.4,32.3,13.7,0001.9,0006.06,0009.08,0005.60
2022-09-25 08:34:00,,0835.9,4.99,0.00,30.5,28.9,00.0,39.3,32.3,13.8,0002.0,0006.06,0009.05,0005.61
2022-09-25 08:35:00,,0835.9,5.01,0.00,30.5,28.8,00.0,39.3,32.3,13.8,0001.2,0006.09,0009.38,0005.62
2022-09-25 08:36:00,,0835.9,4.99,0.00,30.5,28.8,00.0,39.3,32.3,13.8,0000.4,0006.11,0009.82,0005.62
2022-09-25 08:37:00,,0835.9,5.00,0.00,30.5,28.8,00.0,39.4,32.3,13.7,0000.0,0006.08,0009.71,0005.62
2022-09-25 08:38:00,,0835.9,5.03,0.00,30.5,28.9,00.0,39.3,32.3,13.7,0000.0,0006.06,0009.65,0005.62
2022-09-25 08:39:00,,0835.9,4.99,0.00,30.5,28.8,00.0,39.3,32.3,13.9,0000.0,0006.07,0009.62,0005.63
2022-09-25 08:40:00,,0835.9,5.00,0.00,30.5,28.8,00.0,39.4,32.3,13.9,0000.0,0006.08,0009.59,0005.64
2022-09-25 08:41:00,,0835.9,5.01,0.00,30.5,28.9,00.0,39.3,32.3,13.8,0000.0,0006.06,0009.52,0005.63
2022-09-25 08:42:00,,0835.9,5.00,0.00,30.5,28.9,00.0,39.3,32.3,13.7,0000.0,0006.05,0009.46,0005.63
2022-09-25 08:43:00,,0835.9,5.00,0.00,30.5,28.9,00.0,39.3,32.3,13.7,0000.0,0006.04,0009.44,0005.62
2022-09-25 08:44:00,,0835.8,4.99,0.00,30.5,28.9,00.0,39.3,32.3,13.7,0000.0,0006.05,0009.53,0005.62
2022-09-25 08:45:00,,0835.8,5.00,0.00,30.5,28.9,00.0,39.3,32.3,13.7,0000.0,0006.06,0009.58,0005.61
2022-09-25 08:46:00,,0835.8,5.00,0.00,30.5,28.9,00.0,39.3,32.3,13.7,0000.0,0006.04,0009.36,0005.61
2022-09-25 08:47:00,,0835.8,4.99,0.00,30.5,28.9,00.0,39.3,32.3,13.7,0000.0,0006.02,0008.94,0005.61
2022-09-25 08:48:00,,0835.8,5.00,0.00,30.5,28.9,00.0,39.3,32.3,13.7,0000.0,0006.04,0008.93,0005.62
2022-09-25 08:49:00,,0835.8,5.01,0.00,30.5,28.9,00.0,39.3,32.3,13.8,0000.0,0006.03,0008.91,0005.62
2022-09-25 08:50:00,,0835.8,4.99,0.00,30.5,28.9,00.0,39.3,32.3,13.8,0000.0,0006.04,0009.03,0005.61
2022-09-25 08:51:00,,0835.7,5.00,0.00,30.5,28.9,00.0,39.3,32.3,13.8,0000.0,0006.03,0009.07,0005.61
2022-09-25 08:52:00,,0835.7,5.00,0.00,30.5,28.9,00.0,39.3,32.3,13.8,0000.0,0006.03,0009.12,0005.60
2022-09-25 08:53:00,,0835.8,5.00,0.00,30.5,28.8,00.0,39.3,32.3,13.8,0000.0,0006.06,0009.19,0005.61
2022-09-25 08:54:00,,0835.8,5.01,0.00,30.5,28.8,00.0,39.3,32.3,13.7,0000.0,0006.07,0009.66,0005.61
2022-09-25 08:55:00,,0835.7,4.99,0.00,30.5,28.8,00.0,39.3,32.3,13.7,0000.0,0006.08,0009.78,0005.61
2022-09-25 08:56:00,,0835.7,5.01,0.00,30.5,28.8,00.0,39.3,32.3,13.8,0000.1,0006.08,0009.78,0005.61
2022-09-25 08:57:00,,0835.7,4.99,0.00,30.5,28.8,00.0,39.3,32.3,13.7,0000.2,0006.06,0009.78,0005.61
2022-09-25 08:58:00,,0835.8,4.99,0.00,30.5,28.8,00.0,39.3,32.3,13.9,0000.0,0006.07,0009.68,0005.61
2022-09-25 08:59:00,,0835.7,5.01,0.00,30.5,28.8,00.0,39.3,32.3,13.8,0000.0,0006.08,0009.72,0005.62
